Location: Champs
(48.8539°N, 2.6040°E)
Time: 22:00:24
(UTC+00:00)

SPOT 1 Rocket Y - Pass Details

Date: 23 August 2022
Orbit: 784 x 832 km, 98.5° (Epoch: 06 October)

Event Time Altitude Azimuth Distance (km) Brightness Sun altitude
Exits shadow 21:20:23 - 208° (SSW) 2,513 8.0 -21.3°
Reaches altitude 10° 21:20:49 10° 211° (SSW) 2,377 7.9 -21.3°
Maximum altitude 21:25:11 26° 267° (W) 1,544 7.4 -21.8°
Drops below altitude 10° 21:29:38 10° 324° (NW) 2,418 9.2 -22.2°
Sets 21:32:23 0° 337° (NNW) 3,363 10.2 -22.5°
